This demonstration page uses our WeatherBlox Daily Observations layout. Learn more.

38.88101, -77.10428

Hourly Observations for March 17, 2017

Temp ( °F °C ) Dew Point ( °F °C ) Humidity (%) Winds ( mph kmh ) Pressure ( in mb ) Visibility ( mi km ) Precip ( " mm )
12:52 am 00:52 Clear 36 2.2 15 -9.4 42 42 WNW 7 11 30.27 1025 10 16.09344 0 0
1:52 am 01:52 Clear 34 1.1 16 -8.9 48 48 N 5 7 30.27 1025 10 16.09344 0 0
2:52 am 02:52 Clear 34 1.1 15 -9.4 46 46 NNW 3 6 30.27 1025 10 16.09344 0 0
3:52 am 03:52 Clear 34 1.1 16 -8.9 48 48 W 5 7 30.3 1026 10 16.09344 0 0
4:52 am 04:52 Clear 33 0.6 18 -7.8 54 54 NW 5 7 30.33 1027 10 16.09344 0 0
5:52 am 05:52 Clear 29 -1.7 20 -6.7 69 69 W 3 6 30.33 1027 10 16.09344 0 0
6:52 am 06:52 Clear 32 0 21 -6.1 64 64 S 3 6 30.36 1028 10 16.09344 0 0
7:52 am 07:52 Sunny 33 0.6 19 -7.2 56 56 WNW 3 6 30.39 1029 10 16.09344 0 0
8:52 am 08:52 Sunny 36 2.2 23 -5 59 59 Calm 30.39 1029 10 16.09344 0 0
9:52 am 09:52 Partly Cloudy 38 3.3 24 -4.4 57 57 S 5 7 30.39 1029 10 16.09344 0 0
10:52 am 10:52 Mostly Cloudy 41 5 21 -6.1 45 45 ESE 5 7 30.39 1029 10 16.09344 0 0
11:52 am 11:52 Mostly Cloudy 46 7.8 18 -7.8 32 32 N 3 6 30.36 1028 10 16.09344 0 0
12:52 pm 12:52 Cloudy 46 7.8 19 -7.2 34 34 SSW 8 13 30.33 1027 10 16.09344 0 0
1:52 pm 13:52 Mostly Cloudy 49 9.4 16 -8.9 27 27 W 7 11 30.33 1027 10 16.09344 0 0
2:52 pm 14:52 Cloudy 49 9.4 16 -8.9 27 27 undefined N/A 30.3 1026 10 16.09344 0 0
3:12 pm 15:12 Mostly Cloudy 52 11 18 -8 26 26 W 8 13 30.3 1026 10 16.09344 0 0
3:52 pm 15:52 Mostly Cloudy 50 10 15 -9.4 25 25 SSW 9 15 30.27 1025 10 16.09344 0 0
4:52 pm 16:52 Cloudy 48 8.9 25 -3.9 41 41 S 10 17 30.21 1023 10 16.09344 0 0
5:52 pm 17:52 Cloudy 48 8.9 20 -6.7 33 33 S 3 6 30.21 1023 10 16.09344 0 0
6:52 pm 18:52 Cloudy 47 8.3 25 -3.9 42 42 N 7 11 30.24 1024 10 16.09344 0.001 0.001
7:52 pm 19:52 Cloudy 46 7.8 27 -2.8 47 47 W 6 9 30.24 1024 10 16.09344 0.001 0.001
8:52 pm 20:52 Cloudy 43 6.1 33 0.6 68 68 SSW 12 19 30.24 1024 10 16.09344 0 0
9:52 pm 21:52 Cloudy 42 5.6 34 1.1 73 73 SW 9 15 30.24 1024 10 16.09344 0 0
10:52 pm 22:52 Cloudy with Light Rain 41 5 36 2.2 82 82 S 7 11 30.24 1024 10 16.09344 0.001 0.001
11:52 pm 23:52 Cloudy 42 5.6 35 1.7 76 76 SSE 7 11 30.21 1023 10 16.09344 0.001 0.001

Powered by AerisWeather